Location: *
(52.3000°N, 7.1500°E)
Time: 06:36:37
(UTC+00:00)

Daily predictions for brighter satellites

Satellite Brightness Start Highest point End
(mag) Time Altitude Azimuth Time Altitude Azimuth Time Altitude Azimuth
In-Cosmos 22 Rocket 4.2 20:17:04 10° S 20:22:28 70° E 20:28:03 10° NNE
ATLAS 3B R/B 4.4 20:17:28 10° W 20:23:34 35° NNW 20:29:37 10° NE
SPOT 1/Viking Rocket 3.8 20:21:32 10° SSE 20:26:38 61° ENE 20:31:47 10° N
Cosmos 1408 Rocket 3.5 20:25:16 10° S 20:29:32 69° E 20:33:51 10° NNE
USA 245 1.8 20:27:22 10° SSE 20:29:34 81° ENE 20:31:53 10° NNW
Lacrosse 5 rocket 2.7 20:26:12 10° WNW 20:30:41 46° N 20:35:07 10° ENE
Spot 2 Rocket 4.1 20:28:21 10° S 20:33:21 56° WSW 20:38:25 10° NNW
Cosmos 1242 Rocket 2.8 20:30:42 10° SSW 20:34:22 77° WNW 20:38:05 10° N
Cosmos 1892 2.7 20:32:07 10° S 20:35:57 76° E 20:39:48 10° NNE
Cosmos 2058 4.2 20:33:20 10° SSW 20:37:23 45° WNW 20:41:29 10° N
Cosmos 1818 4.1 20:32:40 10° NW 20:38:04 55° NE 20:43:26 10° ESE
SPOT 5 3.1 20:36:17 10° SSE 20:41:16 63° ENE 20:46:01 10° N
Cosmos 2228 Rocket 3.2 20:36:49 10° N 20:41:23 68° ENE 20:45:56 10° SSE
Cosmos 1356 Rocket 3.7 20:37:10 10° N 20:41:25 59° ENE 20:45:40 10° SSE
CZ-2C R/B 4.0 20:36:56 10° S 20:42:04 46° W 20:46:59 10° NNW
Cosmos 921 Rocket 3.7 20:38:59 10° NNW 20:43:06 52° WSW 20:47:16 10° S
SL-8 R/B 4.1 20:38:38 10° W 20:43:13 47° SSW 20:47:47 10° ESE
Cosmos 2344 4.5 20:36:04 10° NW 20:45:25 90° NNE 20:58:31 10° SE
Cosmos 1782 4.3 20:43:26 10° NNE 20:46:48 24° ENE 20:50:08 10° ESE
SL-4 R/B 3.7 20:45:48 10° S 20:49:14 19° SE 20:52:38 10° E
Resurs 01 Rocket 3.8 20:46:48 10° SW 20:50:22 23° W 20:53:57 10° NW
Cosmos 1844 3.9 20:46:01 10° NNW 20:51:37 68° NE 20:57:03 11° SE
COSMOS 2428 4.1 20:49:00 10° SE 20:53:04 20° E 20:57:09 10° NE
CARTOSAT-1 3.6 20:49:16 10° SSE 20:53:34 71° ENE 20:57:53 10° N
USA 267 4.0 20:47:30 10° SSE 20:53:38 41° SW 20:59:47 10° WNW
Cosmos 1151 Rocket 3.8 20:50:53 10° NNW 20:55:09 51° W 20:59:24 10° S
ATLAS CENTAUR R/B 3.2 20:53:31 10° NW 20:57:56 32° NNE 21:02:06 10° E
ASTEX 1 4.3 20:57:26 10° NNE 21:01:57 33° E 21:05:57 13° SSE
NOSS 3-1 (C) 4.1 20:57:29 10° S 21:02:21 31° ESE 21:07:50 10° ENE
Landsat 7 4.0 20:58:04 10° S 21:02:49 71° WSW 21:07:35 10° NNW
Cosmos 2360 Rocket 2.2 21:01:41 10° SSW 21:07:14 62° ESE 21:12:48 10° NE
ISS -3.1 21:04:16 10° SW 21:07:18 33° SSE 21:10:21 10° E
Lacrosse 5 2.8 21:03:26 10° WNW 21:08:24 50° N 21:13:21 10° E
Cosmos 2237 Rocket 4.2 21:08:54 10° ESE 21:10:08 11° E 21:11:20 10° E
Cosmos 1980 Rocket 4.4 21:07:42 10° WSW 21:12:37 30° NW 21:17:32 10° NNE
Cosmos 2084 Rocket 3.5 21:11:31 10° NW 21:15:56 82° SW 21:19:28 15° SE
Cosmos 1606 2.6 21:12:15 10° N 21:16:03 86° E 21:19:13 14° S
Cosmos 1408 2.7 21:12:32 10° SSW 21:16:16 80° W 21:20:01 10° N
Sich 1 3.9 21:14:33 15° SSE 21:17:34 32° E 21:21:23 10° NNE
Cosmos 292 Rocket 3.9 21:12:48 10° NNW 21:17:41 79° WSW 21:21:48 14° SSE
Cosmos 1500 Rocket 3.7 21:16:48 10° SSW 21:21:16 80° W 21:25:47 10° N
MOS 1 Rocket 3.6 21:17:00 10° NNE 21:21:18 45° E 21:25:05 14° S
CZ-2C R/B 2.9 21:18:14 10° N 21:23:30 69° WNW 21:28:37 10° SSW
Cosmos 1933 4.0 21:20:18 10° NNW 21:24:17 53° W 21:28:09 10° S
Cosmos 1263 4.0 21:27:20 10° N 21:30:19 86° E 21:32:22 19° S
Terra 2.0 21:27:45 13° S 21:31:56 71° WSW 21:36:43 10° NNW
Cosmos 1140 Rocket 3.7 21:27:50 10° S 21:32:51 54° ESE 21:37:56 10° NNE
Thor Agena Rocket 3.7 21:28:21 10° NNE 21:33:25 77° WNW 21:38:28 10° SSW
USA 81 4.3 21:28:48 10° N 21:34:04 70° W 21:39:02 11° S
Cosmos 407 Rocket 3.5 21:29:19 10° SSW 21:34:37 81° ESE 21:40:01 10° NNE
Cosmos 2279 Rocket 4.3 21:31:09 15° SSE 21:36:12 52° E 21:42:11 10° NNE
Cosmos 2219 Rocket 2.8 21:33:10 14° S 21:37:37 39° ESE 21:42:50 10° NE
Cosmos 2322 Rocket 3.2 21:32:18 10° SW 21:37:51 51° NW 21:43:26 10° NNE
Cosmos 2333 4.3 21:34:04 10° S 21:39:37 55° ESE 21:45:09 10° NE
USA 229 DEB 3.7 21:33:12 10° SSW 21:39:43 62° SE 21:46:33 10° NE
Cosmos 1825 2.7 21:36:01 10° SSW 21:39:44 58° WNW 21:43:29 10° N
USA 229 3.7 21:33:19 10° SSW 21:39:49 62° SE 21:46:39 10° NE
Cosmos 44 Rocket 3.8 21:35:08 10° SW 21:40:14 69° NW 21:45:15 10° NE
Meteor 2-3 Rocket 3.8 21:34:51 10° S 21:40:39 85° E 21:46:32 10° NNE
Cosmos 1190 Rocket 3.9 21:35:29 10° SSW 21:40:41 82° ESE 21:45:57 10° NNE
BREEZE-M DEB (TANK) 2.0 21:38:56 10° WSW 21:41:12 54° S 21:46:18 10° E
Cosmos 1900 4.4 21:36:12 10° SW 21:41:23 89° NW 21:46:34 10° NE
Cosmos 2278 Rocket 2.6 21:36:23 10° NNW 21:42:01 59° NE 21:46:37 15° SE
ERS-1 Rocket 4.3 21:38:15 10° SSW 21:42:49 34° W 21:47:24 10° NNW
BREEZE-M DEB (TANK) 2.1 21:40:48 10° WSW 21:42:54 38° S 21:44:26 17° ESE
NOSS 3-1 (A) 3.9 21:38:17 12° S 21:43:06 38° ESE 21:48:59 10° NE
ATLAS 5 CENTAUR R/B 3.8 21:38:39 10° NW 21:43:18 31° NNE 21:48:33 10° E
SL-16 R/B 3.5 21:38:32 10° WSW 21:43:55 43° NW 21:49:20 10° NNE
Cosmos 2333 Rocket 2.7 21:39:40 14° S 21:44:11 42° ESE 21:49:31 10° NE
Spot 4 4.2 21:41:09 17° SE 21:44:37 53° ENE 21:49:17 10° N
Cosmos 614 Rocket 3.9 21:40:54 10° SSW 21:45:58 87° ESE 21:51:06 10° NNE
Gbstr 26 Del rocket 2.5 21:44:34 10° WSW 21:48:23 79° S 21:52:09 10° E
Cosmos 1707 Rocket 3.6 21:44:40 10° N 21:49:08 88° W 21:52:17 19° S
Cosmos 1607 4.2 21:44:00 10° NW 21:50:02 58° SW 21:54:31 18° SSE
Cosmos 1844 Rocket 3.6 21:50:19 10° NW 21:55:34 40° WSW 21:59:54 15° S
Cosmos 2322 3.7 21:50:15 10° SSW 21:55:55 86° ESE 22:01:38 10° NNE
SeaSat 1 4.0 21:53:45 10° ENE 21:57:12 19° ESE 21:58:44 16° SE
Helios 1A 3.1 21:54:50 22° SSE 21:57:28 67° ENE 22:01:39 10° N
USA 215 3.7 21:53:13 10° ENE 21:59:42 66° NNW 22:06:11 10° W
Cosmos 1763 Rocket 4.0 21:57:52 10° NNW 22:02:56 53° ENE 22:06:44 18° SE
Cosmos 468 Rocket 4.2 22:00:13 10° NNW 22:05:29 69° ENE 22:09:08 20° SE
Cosmos 1634 Rocket 4.3 22:02:46 10° SSW 22:09:00 66° WNW 22:15:13 10° N
Lacrosse 5 rocket 1.8 22:05:47 10° WNW 22:10:25 69° NNE 22:14:56 10° ESE
CENTAUR R/B 4.5 22:04:55 10° WNW 22:11:29 37° N 22:18:54 10° ENE
Cosmos 1805 Rocket 4.1 22:09:39 12° SSW 22:13:37 56° WNW 22:17:56 10° N
ATLAS 3B R/B 4.4 22:10:03 10° NW 22:15:59 32° N 22:21:54 10° ENE
Cosmos 1655 Rocket 4.1 22:12:50 10° NNW 22:19:08 77° W 22:23:37 20° S
Cosmos 2242 Rocket 3.8 22:15:24 10° N 22:19:56 63° ENE 22:22:30 25° SSE
Cosmos 1818 4.4 22:16:30 10° NW 22:21:32 38° WSW 22:24:37 21° S
Cosmos 2208 Rocket 4.3 22:16:34 10° NNW 22:22:02 68° ENE 22:25:41 21° SE
Cosmos 1782 3.9 22:19:30 10° NNW 22:23:15 38° W 22:25:49 18° SSW
Mayak -1.2 22:20:57 10° NNE 22:25:13 75° ESE 22:27:40 25° S
YAOGAN 11 4.1 22:23:11 26° SSE 22:25:35 75° ENE 22:29:54 10° NNW
Meteor 1-10 Rocket 4.4 22:20:43 10° NNW 22:26:20 69° W 22:30:09 21° S
SL-4 R/B 2.4 22:23:37 10° SW 22:28:20 53° SSE 22:32:54 10° E
Cosmos 1315 Rocket 4.2 22:26:08 10° N 22:29:37 29° ENE 22:31:48 18° ESE
Cosmos 1812 2.9 22:26:11 10° N 22:30:01 60° ENE 22:31:48 29° SE
ERS-2 3.5 22:28:08 18° ESE 22:30:09 30° ENE 22:33:25 10° N
Cosmos 1400 Rocket 3.0 22:28:47 10° N 22:32:56 68° ENE 22:34:59 29° SSE
Cosmos 1570 Rocket 4.0 22:28:31 10° NNW 22:33:48 90° ENE 22:36:57 25° SSE
Cosmos 1666 Rocket 4.0 22:30:46 18° SSW 22:34:03 62° WNW 22:38:32 10° N
Cosmos 1862 3.2 22:33:05 27° S 22:35:10 84° E 22:39:12 10° NNE
ALOS 2 2.7 22:33:16 26° SSE 22:35:40 68° ENE 22:40:02 10° N
Cosmos 1933 Rocket 3.8 22:34:02 27° SSE 22:36:10 54° E 22:40:27 10° NNE
SL-16 R/B 3.7 22:34:09 17° SE 22:36:13 20° E 22:40:17 10° NE
Cosmos 1633 Rocket 3.2 22:33:25 21° SSW 22:36:17 69° WNW 22:40:39 10° N
COSMOS 2428 2.8 22:30:54 10° SSW 22:36:38 84° WNW 22:42:25 10° NNE
ATLAS CENTAUR R/B 1.6 22:32:33 10° NW 22:37:21 72° SW 22:39:44 27° SSE
Helios 1B rocket 2.9 22:33:57 10° NNE 22:37:59 48° E 22:39:43 29° SSE
Okean 1-7 3.8 22:34:46 10° N 22:38:53 43° ENE 22:41:10 23° SE
NOSS 2-3 (C) 4.1 22:37:14 25° S 22:39:37 48° SE 22:44:48 10° NE
SL-24 R/B - RUBIN 2 4.3 22:35:37 10° NW 22:41:15 85° SW 22:45:39 20° SE
Lacrosse 4 Rocket 3.3 22:41:23 16° ESE 22:42:02 16° ESE 22:44:50 10° ENE
GP-B 3.1 22:38:29 10° N 22:42:58 79° E 22:45:15 28° S
ISS -3.9 22:40:25 10° WSW 22:43:46 76° S 22:47:06 10° E
Cosmos 1980 3.9 22:42:14 23° S 22:45:38 56° ESE 22:51:12 10° NE
Cosmos 1862 Rocket 3.9 22:41:58 10° NNW 22:46:13 55° W 22:48:29 26° SSW
Cosmos 1867 3.7 22:44:53 20° SSW 22:48:34 59° SE 22:53:59 10° NE
Cosmos 2360 Rocket 3.9 22:46:31 10° WSW 22:51:37 33° NW 22:56:42 10° NNE
Lacrosse 5 1.8 22:46:39 10° WNW 22:51:46 88° NNE 22:56:25 12° ESE
Cosmos 1814 Rocket 4.0 22:46:56 10° NNW 22:52:08 79° ENE 22:55:10 25° SSE
NOSS 3-1 (C) 3.7 22:46:49 10° SW 22:52:37 72° NW 22:59:27 10° NE
Cosmos 2237 Rocket 2.3 22:49:41 24° S 22:52:59 59° ESE 22:58:32 10° NE
Cosmos 1470 Rocket 3.5 22:51:23 27° SSW 22:53:46 82° W 22:58:12 10° N
Cosmos 1437 4.1 22:53:43 23° ESE 22:54:07 24° E 22:56:41 10° NE
COSMOS 2455 3.6 22:51:59 24° SSE 22:54:38 35° ESE 23:00:03 10° NE
Cosmos 192 4.4 22:50:09 10° NNW 22:55:06 74° ENE 22:58:00 25° SE
SAR-Lupe-3 4.5 22:56:08 10° NNE 22:59:45 89° E 23:01:11 35° SSW
Cosmos 1869 Rocket 4.4 22:58:41 25° SE 23:00:30 37° E 23:04:33 10° NNE
Cosmos 1633 2.9 22:59:07 28° SW 23:00:46 57° WNW 23:04:20 10° N
Cosmos 1741 Rocket 4.0 22:57:17 21° SSW 23:00:49 90° ESE 23:06:05 10° NNE
Cosmos 2266 Rocket 4.4 22:59:58 10° NNW 23:06:13 57° W 23:10:16 22° SSW
Terra 4.3 23:09:16 10° W 23:10:34 11° W 23:11:52 10° WNW
Cosmos 1850 Rocket 4.2 23:07:43 18° SSW 23:11:41 75° WNW 23:17:04 10° NNE
Meteor 1-27 Rocket 4.4 23:10:15 10° NNW 23:15:52 48° W 23:19:24 22° SSW
Meteor 1-18 Rocket 4.5 23:10:55 10° N 23:16:32 62° ENE 23:20:01 23° SSE
Cosmos 2297 3.6 23:14:09 10° NNW 23:19:49 83° WSW 23:23:14 25° SSE
Cosmos 540 Rocket 3.4 23:15:11 10° NNW 23:20:21 84° WSW 23:23:08 28° SSE
Cosmos 2219 Rocket 3.1 23:16:01 10° SW 23:21:30 48° NW 23:27:00 10° NNE
Cosmos 1553 Rocket 4.5 23:18:07 23° SSE 23:21:37 48° E 23:27:27 10° NNE
Cosmos 2278 Rocket 3.3 23:20:56 10° NW 23:25:49 30° WSW 23:28:27 21° SSW
Cosmos 1943 Rocket 3.1 23:22:52 10° NNW 23:28:09 44° NE 23:33:25 10° ESE
Cosmos 2333 Rocket 3.2 23:23:01 10° WSW 23:28:28 45° NW 23:33:56 10° NNE
ATLAS 5 CENTAUR R/B 2.5 23:23:14 10° NW 23:28:46 73° NE 23:35:08 10° SE
Meteor 1-20 Rocket 4.5 23:26:19 26° SSE 23:29:31 61° E 23:35:17 10° NNE
DELTA 2 DEB (DPAF) 4.4 23:28:59 25° SE 23:31:26 63° ENE 23:35:53 10° N
Okean 1 3.5 23:29:19 10° N 23:33:22 67° ENE 23:35:07 32° SSE
NOSS 3-1 (A) 3.9 23:27:52 10° WSW 23:33:40 63° NW 23:40:32 10° NE
Gbstr 26 Del rocket 2.5 23:31:22 10° W 23:35:05 70° SSW 23:39:00 10° ESE
SeaSat 1 2.4 23:30:19 10° NNE 23:35:18 86° WNW 23:38:30 22° SW
SL-16 R/B 4.2 23:30:31 10° ESE 23:35:38 28° NE 23:40:43 10° N
Cosmos 841 Rocket 3.9 23:32:23 10° NNW 23:37:21 50° WSW 23:39:43 28° SSW
Cosmos 1733 Rocket 4.3 23:38:02 21° SE 23:40:04 31° E 23:43:57 10° NNE
Meteor 1-29 3.6 23:37:34 10° N 23:40:55 48° WNW 23:42:19 29° SW
Resurs 1-4 Rocket 4.4 23:39:49 10° ENE 23:41:36 12° E 23:43:23 10° ESE
BREEZE-M DEB (TANK) 4.2 23:30:27 10° W 23:42:01 51° S 23:45:59 10° ESE
USA 215 3.8 23:35:57 10° E 23:42:23 62° N 23:48:50 10° WNW
CZ-4 R/B 3.8 23:38:59 10° NNE 23:43:41 85° WNW 23:46:10 29° SSW
NOSS 2-3 (E) 4.2 23:40:32 12° WSW 23:44:46 70° NW 23:50:29 10° NE
NOSS 2-3 (D) 4.2 23:43:27 13° WSW 23:47:33 70° NW 23:53:16 10° NE
Lacrosse 5 rocket 2.1 23:45:15 10° WNW 23:49:31 39° SW 23:50:38 33° S
Cosmos 1745 Rocket 4.0 23:44:01 10° N 23:50:23 80° E 23:54:26 24° SSE
Cosmos 2369 Rocket 2.7 23:46:43 10° NNW 23:52:24 59° NE 23:57:57 10° SE
